This is the latest recevied weather packets stored in our database for station/object KG5WBN. If no packets are shown the sender has not sent any weather packets the latest 10 day(s).
| Time | Temp. | Humidity | Pressure | Rain* | Wind** | Luminosity | Snow |
|---|---|---|---|---|---|---|---|
| 1777551024 | 25° C | 90% | 1010.2 hPa | 0 mm | - | 23 W/m² | - |
| 1777550721 | 25° C | 90% | 1010.2 hPa | 0 mm | - | 16 W/m² | - |
| 1777550418 | 24.44° C | 89% | 1010.2 hPa | 0 mm | - | 14 W/m² | - |
| 1777550114 | 24.44° C | 89% | 1010.2 hPa | 0 mm | - | 11 W/m² | - |
| 1777549810 | 24.44° C | 89% | 1010.2 hPa | 0 mm | - | 7 W/m² | - |
| 1777549506 | 24.44° C | 88% | 1009.8 hPa | 0 mm | - | 5 W/m² | - |
| 1777549203 | 24.44° C | 88% | 1009.8 hPa | 0 mm | - | 4 W/m² | - |
| 1777548899 | 24.44° C | 88% | 1009.8 hPa | 0 mm | - | 4 W/m² | - |
| 1777548596 | 24.44° C | 86% | 1009.5 hPa | 0 mm | - | 3 W/m² | - |
| 1777548293 | 24.44° C | 86% | 1009.5 hPa | 0 mm | - | 2 W/m² | - |
| 1777547990 | 24.44° C | 85% | 1009.8 hPa | 0 mm | - | 0 W/m² | - |
| 1777547685 | 24.44° C | 85% | 1009.8 hPa | 0 mm | - | 0 W/m² | - |
| 1777547382 | 24.44° C | 85% | 1009.5 hPa | 0 mm | - | 0 W/m² | - |
| 1777547081 | 24.44° C | 85% | 1009.1 hPa | 0 mm | - | 0 W/m² | - |
| 1777546777 | 24.44° C | 85% | 1009.1 hPa | 0 mm | - | 0 W/m² | - |
| 1777546474 | 24.44° C | 85% | 1009.1 hPa | 0 mm | - | 0 W/m² | - |
| 1777546171 | 24.44° C | 85% | 1009.1 hPa | 0 mm | - | 0 W/m² | - |
| 1777545867 | 23.89° C | 85% | 1008.8 hPa | 0 mm | - | 0 W/m² | - |
| 1777545564 | 23.89° C | 85% | 1009.1 hPa | 0 mm | - | 0 W/m² | - |
| 1777545261 | 23.89° C | 86% | 1008.8 hPa | 0 mm | - | 0 W/m² | - |
| 1777544959 | 23.89° C | 88% | 1008.8 hPa | 0 mm | - | 0 W/m² | - |
| 1777544655 | 23.89° C | 88% | 1008.5 hPa | 0 mm | - | 0 W/m² | - |
| 1777544351 | 23.89° C | 88% | 1008.1 hPa | 0 mm | - | 0 W/m² | - |
| 1777544048 | 23.89° C | 88% | 1008.8 hPa | 0 mm | - | 0 W/m² | - |
| 1777543745 | 23.33° C | 87% | 1009.1 hPa | 0 mm | - | 0 W/m² | - |
* Rain latest hour (hover to see other rain measurements)
** Current wind speed in m/s (hover to see current wind gust speed)